Regional Weather Roundup
Issued by NWS

Home | Current Version | Previous Version | Graphics & Text | Print | Product List | Glossary On
Versions: 1 2 3 4 5 6 7 8 9 10 11 12 13 14 15 16 17 18 19 20 21 22 23 24 25 26 27
000
ASUS45 KCYS 211710
RWRWY

WYOMING REGIONAL WEATHER ROUNDUP
NATIONAL WEATHER SERVICE CHEYENNE WY
1100 AM MDT WED JUN 21 2017

NOTE:  "FAIR" INDICATES FEW OR NO CLOUDS BELOW 12,000 FEET
WITH NO SIGNIFICANT WEATHER AND/OR OBSTRUCTIONS TO VISIBILITY.

WYZ001-211800-
YELLOWSTONE NATIONAL PARK

CITY           SKY/WX    TMP DP  RH WIND       PRES   REMARKS
LK YELLOWSTONE   N/A     69  35  28 W12G24    30.22F
W YELLOWSTONE  NOT AVBL

$$
WYZ002>013-054>058-071-098>099-211800-
NORTHERN WYOMING

CITY           SKY/WX    TMP DP  RH WIND       PRES   REMARKS
JACKSON        MOSUNNY   66  54  63 S5        30.15F
CODY           FAIR      74  50  42 NE15      30.02F
GREYBULL       FAIR      83  47  28 NW6       29.91F
WORLAND        FAIR      81  51  35 CALM      29.94F
SHERIDAN       FAIR      76  52  43 N10       29.98F
BUFFALO        FAIR      74  50  42 N14G25    30.03S
GILLETTE       FAIR      79  51  37 NW21      29.96S
HULETT         FAIR      77  50  38 N15       29.97R
NEWCASTLE      FAIR      81  48  32 NW15G23   29.93S

$$
WYZ014>020-022>026-101>103-211800-
CENTRAL WYOMING

CITY           SKY/WX    TMP DP  RH WIND       PRES   REMARKS
BIG PINEY      FAIR      78  44  29 W9        30.21F
PINEDALE       FAIR      75  39  27 NW9       30.22S
DUBOIS         FAIR      73  34  23 NW20G37   30.14F
LANDER         FAIR      81  48  31 CALM      30.05R
RIVERTON       FAIR      82  45  27 S9        30.04F
CASPER         FAIR      87  37  17 NW18G26   30.02F
DOUGLAS        FAIR      84  48  28 NW13      30.01R

$$
WYZ021-027>030-104>119-211800-
SOUTHERN WYOMING

CITY           SKY/WX    TMP DP  RH WIND       PRES   REMARKS
EVANSTON       FAIR      78  43  28 SW9       30.23F
KEMMERER         N/A     77  41  27 W12       30.24S
FORT BRIDGER   FAIR      81  41  24 W7        30.25F
ROCK SPRINGS   FAIR      80  38  22 SW9       30.20F
DIXON          FAIR      83  38  20 W5        30.22F
RAWLINS        FAIR      82  38  20 W17G25    30.19F
SARATOGA       FAIR      82  36  18 W15G25    30.22S
LARAMIE        FAIR      82  32  16 NW25G37   30.20S
CHEYENNE       FAIR      84  33  16 NW18G32   30.10S
TORRINGTON     FAIR      89  43  20 W15       29.91S
PINE BLUFFS    FAIR      88  34  14 W22G30    30.01S

$$




USA.gov is the U.S. government's official web portal to all federal, state and local government web resources and services.